CW6575 Weather Reports


Display with metric or nautical units.
time (UTC)temp
F
wind
direction
speed
MPH
gust
MPH
rain 1hr
in
rain 24hr
in
rain mn
in
humidity
%
barometer
mb
20260510150004 68 327 1.0 9.0 0.00 0.00 0.00 61 1014.0
20260510144501 67 286 2.0 9.0 0.00 0.00 0.00 60 1013.8
20260510143058 66 137 3.0 8.0 0.00 0.00 0.00 66 1013.7
20260510141601 64 34 1.0 4.0 0.00 0.00 0.00 65 1013.6
20260510140054 64 349 1.0 6.0 0.00 0.00 0.00 65 1014.1
20260510134555 63 138 0.0 5.0 0.00 0.00 0.00 67 1014.1
20260510133101 62 178 1.0 6.0 0.00 0.00 0.00 70 1014.2
20260510131545 61 180 1.0 7.0 0.00 0.00 0.00 70 1014.1
20260510130038 61 305 0.0 3.0 0.00 0.00 0.00 70 1014.0
20260510124540 60 257 2.0 5.0 0.00 0.00 0.00 71 1013.9
20260510123040 60 148 1.0 8.0 0.00 0.00 0.00 75 1013.7
20260510121530 57 148 1.0 8.0 0.00 0.00 0.00 83 1013.6
20260510120027 51 148 1.0 3.0 0.00 0.00 0.00 93 1013.3
20260510114524 49 159 0.0 0.0 0.00 0.00 0.00 93 1012.9
20260510113021 48 159 0.0 3.0 0.00 0.00 0.00 93 1013.1
20260510111516 47 159 2.0 5.0 0.00 0.00 0.00 93 1013.0
20260510110014 47 156 1.0 3.0 0.00 0.00 0.00 93 1012.9
20260510104512 47 159 1.0 5.0 0.00 0.00 0.00 93 1012.8
20260510103012 47 159 1.0 3.0 0.00 0.00 0.00 92 1012.6
20260510101509 47 159 0.0 5.0 0.00 0.00 0.00 92 1012.3
20260510100009 47 172 0.0 0.0 0.00 0.00 0.00 92 1012.1
20260510094510 47 172 0.0 3.0 0.00 0.00 0.00 92 1011.9
20260510093006 47 172 0.0 2.0 0.00 0.00 0.00 92 1011.9
20260510091506 48 172 0.0 3.0 0.00 0.00 0.00 92 1011.6
20260510090004 48 164 2.0 5.0 0.00 0.00 0.00 92 1011.4
20260510084600 48 160 0.0 3.0 0.00 0.00 0.00 92 1011.5
20260510083058 48 160 0.0 0.0 0.00 0.00 0.00 92 1011.5
20260510081556 48 160 0.0 3.0 0.00 0.00 0.00 92 1011.4
20260510080059 47 156 0.0 3.0 0.00 0.00 0.00 92 1011.2
20260510074551 48 159 1.0 4.0 0.00 0.00 0.00 93 1011.3
20260510073104 47 161 0.0 0.0 0.00 0.00 0.00 92 1011.3
20260510071558 46 160 0.0 2.0 0.00 0.00 0.00 92 1011.3
20260510070048 46 160 0.0 2.0 0.00 0.00 0.00 92 1011.3
20260510064555 46 160 1.0 5.0 0.00 0.00 0.00 92 1011.1
20260510063048 46 177 0.0 3.0 0.00 0.00 0.00 92 1011.3
20260510061549 46 180 1.0 4.0 0.00 0.00 0.00 92 1011.3
20260510060046 46 169 0.0 0.0 0.00 0.00 0.00 92 1011.3
20260510054545 45 160 0.0 0.0 0.00 0.00 0.00 91 1011.4
20260510053045 45 159 0.0 3.0 0.00 0.00 0.00 91 1011.6
20260510051545 46 164 0.0 3.0 0.00 0.00 0.00 91 1011.6
20260510050043 46 153 0.0 3.0 0.00 0.00 0.00 90 1011.6
20260510044548 46 156 1.0 3.0 0.00 0.00 0.00 90 1011.7
20260510043038 46 155 1.0 4.0 0.00 0.00 0.00 90 1011.4
20260510041536 47 155 1.0 5.0 0.00 0.00 0.00 89 1011.0
20260510040032 47 165 2.0 5.0 0.00 0.00 0.00 88 1011.1
20260510034535 48 165 1.0 2.0 0.00 0.00 0.00 87 1011.0
20260510033031 48 164 0.0 2.0 0.00 0.00 0.00 87 1010.8
20260510031532 48 164 2.0 4.0 0.00 0.00 0.00 88 1010.7
20260510030026 48 164 1.0 5.0 0.00 0.00 0.00 87 1010.7
20260510024525 49 165 1.0 3.0 0.00 0.00 0.00 87 1010.7
20260510023024 48 165 1.0 3.0 0.00 0.00 0.00 86 1010.6
20260510021532 49 165 2.0 4.0 0.00 0.00 0.00 86 1010.3
20260510020020 50 165 1.0 4.0 0.00 0.00 0.00 84 1010.3
20260510014519 51 165 2.0 4.0 0.00 0.00 0.00 83 1010.1
20260510013018 51 165 1.0 3.0 0.00 0.00 0.00 81 1009.9
20260510011516 53 165 0.0 1.0 0.00 0.00 0.00 78 1009.5
20260510010015 54 165 0.0 3.0 0.00 0.00 0.00 76 1009.1
20260510004517 56 159 0.0 2.0 0.00 0.00 0.00 72 1008.8
20260510003015 59 319 0.0 2.0 0.00 0.00 0.00 63 1008.6
20260510001514 61 326 0.0 2.0 0.00 0.00 0.00 58 1008.5
20260510000018 62 321 1.0 4.0 0.00 0.00 0.00 57 1008.5
20260509234514 63 303 0.0 4.0 0.00 0.00 0.00 56 1008.3
20260509233013 64 302 1.0 5.0 0.00 0.00 0.00 54 1008.2
20260509231513 64 302 2.0 5.0 0.00 0.00 0.00 53 1008.2
20260509230011 65 304 2.0 5.0 0.00 0.00 0.00 52 1008.4
20260509224511 66 315 1.0 4.0 0.00 0.00 0.00 50 1008.4
20260509223011 66 205 1.0 4.0 0.00 0.00 0.00 50 1008.6
20260509221511 64 5 1.0 5.0 0.00 0.00 0.00 53 1008.7
20260509220011 64 315 2.0 5.0 0.00 0.00 0.00 53 1008.8
20260509214510 64 304 2.0 6.0 0.00 0.00 0.00 53 1008.6
20260509213009 64 275 2.0 9.0 0.00 0.00 0.00 51 1008.5
20260509211513 65 330 1.0 4.0 0.00 0.00 0.00 50 1008.2
20260509210011 67 322 2.0 7.0 0.00 0.00 0.00 48 1008.0
20260509204507 66 295 2.0 5.0 0.00 0.00 0.00 50 1008.0
20260509203006 66 303 2.0 7.0 0.00 0.00 0.00 49 1007.8
20260509201506 66 347 2.0 8.0 0.00 0.00 0.00 49 1007.9
20260509200005 66 355 2.0 9.0 0.00 0.00 0.00 47 1007.7
20260509194505 66 277 1.0 8.0 0.00 0.00 0.00 46 1007.8
20260509193010 67 326 2.0 8.0 0.00 0.00 0.00 42 1007.8
20260509191604 65 332 2.0 5.0 0.00 0.00 0.00 50 1007.8
20260509190109 65 338 2.0 6.0 0.00 0.00 0.00 50 1007.8
20260509184558 65 267 0.0 3.0 0.00 0.00 0.00 49 1007.8
20260509183055 65 123 1.0 8.0 0.00 0.00 0.00 51 1007.9
20260509181559 64 142 3.0 11.0 0.00 0.00 0.00 52 1007.8
20260509180058 63 103 7.0 12.0 0.00 0.00 0.00 52 1007.9
20260509174550 64 300 2.0 11.0 0.00 0.00 0.00 54 1008.1
20260509173049 63 161 5.0 10.0 0.00 0.00 0.00 55 1008.1
20260509171547 63 126 4.0 16.0 0.00 0.00 0.00 56 1008.4
20260509170042 61 184 3.0 9.0 0.00 0.00 0.00 58 1008.6
20260509164548 61 144 3.0 7.0 0.00 0.00 0.00 58 1008.7
20260509163038 60 164 0.0 3.0 0.00 0.00 0.00 57 1008.8
20260509161538 60 267 0.0 1.0 0.00 0.00 0.00 56 1008.8
20260509160035 59 171 0.0 5.0 0.00 0.00 0.00 57 1008.8
20260509154533 59 338 0.0 2.0 0.00 0.00 0.00 59 1008.9
20260509153032 59 338 1.0 4.0 0.00 0.00 0.00 57 1009.3
20260509151536 59 341 0.0 4.0 0.00 0.00 0.00 58 1009.4